EHI
5 7 6 4 2 3 2 2 2 1 1 2 1 1 2 3 3 2 2 2 2 1 0 0 0 0 0 0 0 0 0 0 0 0 0 0 0 0
11 12 12 9 6 5 5 5 5 4 3 2 1 2 4 5 4 3 3 3 2 1 0 0 0 0 0 0 0 0 0 0 0 0 0 0 0 0
17 18 19 16 12 10 10 9 9 9 7 4 2 4 8 9 7 5 4 4 3 1 0 0 0 0 0 0 0 0 0 0 0 0 0 0 0 0
19 20 21 19 17 15 14 13 11 11 10 7 6 7 9 9 7 5 3 4 3 1 0 0 0 0 0 0 0 0 0 0 0 0 0 0 0 0
20 20 20 20 19 19 19 17 14 13 12 10 8 9 9 8 7 5 5 5 4 1 0 0 0 0 0 0 0 0 0 0 0 0 0 0 0 0
19 19 18 17 17 18 19 19 17 15 14 13 11 10 10 9 7 6 7 7 5 2 1 1 1 0 0 0 0 0 0 0 0 0 0 0 0 0
18 17 15 13 13 13 14 15 15 16 16 16 14 11 11 11 7 5 5 6 5 3 2 2 2 2 1 1 0 0 0 0 0 0 0 0 0 0
16 15 12 10 9 8 7 7 8 11 15 16 15 13 12 10 6 4 3 5 6 4 2 1 2 3 3 2 0 0 0 0 0 0 0 0 0 0
16 15 13 10 9 9 7 5 5 6 9 12 13 11 10 8 5 3 3 5 7 6 3 1 1 1 1 1 0 0 0 0 0 0 0 0 0 0
16 17 15 12 10 10 11 9 8 7 5 5 6 6 5 5 3 1 2 3 5 5 4 2 0 1 1 0 0 0 0 0 0 0 0 0 0 0
17 17 17 14 10 10 13 14 13 10 5 3 2 2 2 2 1 0 0 1 2 3 5 3 1 2 2 1 0 0 0 0 0 0 0 0 0 0
18 18 16 11 7 7 11 15 15 12 8 5 3 2 1 1 2 1 1 0 1 2 5 5 3 3 3 2 1 0 0 0 0 0 0 0 0 0
18 19 15 7 3 4 7 11 11 9 8 8 7 5 4 4 5 4 2 2 2 3 5 6 4 3 4 3 2 1 1 0 0 0 0 0 0 0
16 16 12 5 1 1 3 4 4 4 5 7 7 7 6 6 6 6 4 4 4 4 5 6 5 4 4 4 4 3 1 0 0 0 0 0 0 0
12 10 6 2 0 0 0 0 0 1 3 5 6 7 7 7 7 6 5 5 5 4 4 5 5 5 4 4 4 3 1 0 0 0 0 0 0 0
7 5 2 1 1 1 1 1 1 2 3 4 6 7 7 8 7 7 6 5 4 4 4 5 5 5 4 3 3 2 1 0 0 0 0 0 0 0
6 5 4 3 3 4 4 3 3 2 2 3 4 6 7 8 8 7 7 6 5 4 5 6 6 6 5 4 3 3 2 1 0 0 0 0 0 0
7 7 6 5 5 5 5 4 3 2 1 1 3 4 5 6 7 8 8 7 5 5 6 5 5 5 4 3 3 3 3 2 1 0 0 0 0 0
8 8 8 6 4 4 4 3 1 1 0 1 2 2 3 4 5 7 8 6 5 5 5 4 3 2 1 1 1 2 2 2 1 0 0 0 0 0
8 8 8 6 4 3 3 2 1 0 0 0 1 1 1 2 3 4 5 5 4 3 2 2 1 0 0 0 0 0 1 2 2 1 1 1 1 1
7 7 7 5 4 3 3 3 1 0 0 0 0 0 0 1 1 1 1 2 2 2 1 1 1 0 0 0 0 0 1 2 2 2 2 2 2 2
5 6 5 4 3 3 3 3 2 0 0 0 0 0 0 0 0 0 0 0 1 1 1 0 0 0 0 0 0 0 1 2 2 1 1 1 2 2
6 6 5 4 3 3 3 3 1 0 0 0 0 0 0 0 0 0 0 0 0 1 0 0 0 0 0 0 0 0 1 2 2 1 0 0 1 1
Wind_Speed
5 6 6 4 4 4 4 4 5 5 3 2 3 2 2 2 1 4 3 4 5 5 5 4 4 4 4 4 4 4 4 5 5 5 6 6 7 7
5 5 5 5 4 4 4 4 5 5 5 2 2 2 2 3 2 3 3 5 7 7 6 5 5 4 4 4 4 4 4 4 5 5 6 6 6 6
6 6 6 5 4 4 4 4 4 5 5 4 3 2 2 4 2 4 4 5 4 7 6 6 5 5 5 4 4 4 4 4 4 5 5 6 6 6
7 6 6 5 5 5 4 5 4 4 6 5 4 3 3 3 3 4 4 4 3 5 6 6 6 5 5 5 4 4 4 3 4 4 5 5 6 6
7 7 7 6 6 4 5 5 5 5 4 5 4 3 3 2 3 4 4 3 4 4 6 7 6 6 6 5 5 4 4 4 4 4 4 4 5 5
7 7 7 6 6 5 5 5 5 5 4 5 4 4 3 3 3 4 3 2 3 2 1 2 5 8 8 7 6 5 5 4 4 4 4 4 4 4
6 6 6 4 3 4 4 4 4 5 5 5 5 4 3 2 3 3 3 3 2 2 2 3 3 3 5 7 7 5 5 4 4 4 4 4 5 5
6 6 5 5 4 4 3 3 4 6 6 5 5 4 4 4 3 4 4 4 3 1 3 3 3 3 2 2 4 4 4 4 4 4 5 5 5 5
5 6 5 3 5 5 5 6 5 4 5 7 6 5 4 3 3 5 4 5 5 2 3 4 3 4 3 1 6 6 5 4 4 5 5 5 6 6
6 6 5 5 4 4 5 5 5 4 5 6 5 5 4 3 4 5 5 5 6 4 3 5 4 4 4 2 6 6 6 5 5 5 5 5 6 6
7 6 6 6 3 3 5 5 4 4 3 2 2 2 2 3 4 5 4 5 5 3 3 4 4 4 4 4 4 8 8 7 6 6 6 6 6 7
5 6 6 5 5 5 6 5 5 4 3 3 4 6 6 6 6 6 5 5 5 4 2 3 4 3 4 3 2 3 4 6 8 7 7 7 6 5
5 5 3 6 5 5 6 5 4 4 4 5 4 4 5 4 4 4 4 5 6 4 2 3 4 4 5 4 4 3 3 2 3 4 6 7 6 5
5 4 2 5 4 5 5 3 3 5 5 5 4 4 4 3 3 3 3 5 5 6 5 5 5 5 5 5 4 3 3 3 3 3 3 4 6 6
3 0 2 5 5 5 6 6 6 6 5 5 4 4 3 3 3 3 5 5 7 7 5 5 6 5 6 6 5 4 4 3 3 3 3 3 3 3
3 2 5 7 6 4 5 6 6 4 4 4 4 4 4 4 4 3 4 4 4 4 3 4 5 6 6 6 5 5 4 3 3 3 3 4 3 3
2 3 4 4 4 4 4 4 4 4 4 4 4 4 4 4 3 3 3 4 4 4 3 3 3 4 5 5 5 4 4 4 3 3 4 5 4 3
4 5 4 4 4 4 4 4 4 4 3 4 4 4 4 4 4 4 4 4 4 4 4 3 3 3 4 3 4 5 4 4 4 3 4 5 5 3
5 4 3 3 3 3 3 4 4 3 3 4 4 4 4 4 4 4 4 4 5 4 4 3 4 4 5 5 3 3 4 4 4 4 4 4 5 4
4 2 2 2 2 2 2 3 2 2 3 4 4 4 4 4 4 4 4 5 5 5 4 3 3 4 5 5 4 3 4 4 4 4 4 4 4 4
3 2 2 2 2 2 2 3 3 3 3 4 3 4 4 4 4 5 4 4 6 5 5 4 3 4 5 4 4 3 2 3 3 4 5 5 5 5
3 3 2 2 2 3 3 3 3 3 3 4 3 3 3 4 5 5 4 4 5 4 4 4 4 4 4 4 5 5 4 2 3 3 4 5 5 5
2 3 3 3 3 3 3 3 4 3 3 3 3 3 4 4 4 4 4 4 4 4 4 4 4 4 4 5 5 4 4 3 2 2 3 2 4 5
Wind_Direction
246 234 247 250 251 260 261 265 275 283 278 236 245 255 255 256 180 241 240 167 192 207 219 229 236 236 238 241 246 253 256 258 258 258 259 258 255 254
251 261 258 258 258 255 254 255 258 271 282 290 274 279 312 286 197 258 252 179 200 204 210 219 228 232 232 234 238 243 249 250 252 256 259 259 256 256
246 242 243 260 263 265 259 258 254 258 267 274 271 268 270 277 258 261 251 244 200 186 202 214 221 227 230 231 231 237 243 249 253 258 261 260 259 257
243 241 241 237 238 258 265 263 264 263 261 270 274 264 251 256 256 265 267 263 267 159 188 210 218 222 225 228 227 232 241 250 257 263 267 264 262 259
244 240 240 242 245 248 255 261 261 255 255 261 264 270 260 257 254 249 253 263 267 176 184 195 205 212 215 218 223 228 235 243 250 257 264 269 266 263
249 245 241 241 242 242 243 248 259 266 256 258 260 255 250 244 254 259 249 232 270 277 243 205 191 199 206 208 212 218 226 235 241 249 253 255 261 264
246 245 241 237 259 263 268 258 255 258 257 254 257 258 257 260 262 269 271 267 234 274 272 246 217 221 205 201 204 209 218 230 239 246 249 252 254 254
249 249 243 217 210 227 257 277 283 263 267 267 261 265 270 268 277 278 279 277 270 237 279 273 267 262 253 238 159 177 208 224 236 245 250 252 251 248
247 249 253 229 208 221 210 217 237 253 261 272 276 277 275 281 282 272 274 284 292 297 280 274 267 269 261 197 154 174 201 221 236 247 254 256 255 250
243 243 242 241 233 234 240 234 233 232 240 246 261 271 278 288 268 266 268 259 254 243 248 270 266 267 272 245 166 186 205 220 232 243 250 256 257 255
239 237 234 232 188 211 233 234 233 230 212 201 251 267 313 287 284 271 263 263 263 252 239 272 275 276 270 255 189 189 205 214 222 231 237 242 252 252
228 227 215 217 186 202 229 230 231 235 237 204 212 221 227 223 225 250 267 268 272 264 206 263 274 277 272 256 252 217 215 207 211 218 222 226 238 254
235 232 202 167 181 207 238 241 239 256 249 242 235 232 229 230 227 231 260 275 278 275 262 253 272 269 271 275 270 258 252 250 232 221 212 211 221 247
253 249 182 156 189 219 233 221 217 245 245 241 245 246 244 244 242 251 257 268 276 278 281 273 274 276 275 275 277 273 267 260 258 257 246 204 214 226
265 242 155 176 197 216 205 202 216 235 243 243 246 252 258 262 259 242 239 242 250 255 256 256 266 274 273 275 280 281 281 275 259 265 265 251 243 240
223 181 184 203 216 212 201 209 227 241 250 251 257 261 260 249 248 255 258 253 256 251 242 246 259 266 267 274 272 269 273 277 278 278 281 270 250 250
211 221 220 214 218 220 225 227 227 219 231 246 252 252 255 255 255 257 261 265 262 264 257 240 242 250 264 274 271 274 277 274 270 275 279 276 264 253
216 225 224 227 230 230 234 235 235 233 239 247 254 256 255 256 257 256 254 260 266 271 276 270 254 253 255 254 267 277 280 282 285 274 272 277 276 275
221 230 228 234 241 242 242 243 240 239 253 255 254 257 258 259 261 263 263 264 265 268 273 270 262 261 266 266 229 233 282 289 286 278 280 286 287 287
235 237 230 227 232 243 250 251 246 240 247 257 259 263 263 264 267 267 263 267 271 272 273 271 266 271 274 282 287 261 235 272 283 284 289 288 290 291
226 222 222 226 225 233 241 246 246 250 259 266 268 277 278 272 269 270 269 261 264 267 270 271 276 264 267 268 271 272 254 230 264 278 286 283 284 280
213 212 216 224 226 230 233 239 242 241 246 256 264 270 277 281 278 275 276 272 265 267 271 273 260 250 253 256 265 276 278 262 237 258 271 277 285 281
218 216 210 212 219 226 234 242 252 253 254 264 268 269 275 278 279 279 278 275 275 271 267 264 261 259 257 254 262 273 276 275 281 278 280 257 252 260